Regional Weather Roundup
Issued by NWS Midland/Odessa, TX

Skip options and go directly to product.
Home | Oldest Version | Next Version | Current Version | All | Text Only | Save Text | Print | Product List | Glossary On

Skip product version selection by date and time.   
286
ASUS44 KMAF 200702
RWRMAF
MIDLAND AREA WEATHER ROUNDUP
NATIONAL WEATHER SERVICE MIDLAND TX
200 AM CDT SUN APR 20 2014

...IN SOUTHWEST TEXAS AND SOUTHEAST NEW MEXICO...

CITY           SKY/WX    TMP DP  RH WIND       PRES   REMARKS
ALPINE         MOCLDY    55  55  97 CALM      30.19R
ANDREWS        FAIR      58  57  97 S7        30.09S
ARTESIA        CLEAR     52  50  93 S9        30.08S
BIG SPRING     CLOUDY    61  58  90 SE7       30.11R
CARLSBAD       CLEAR     57  54  89 S8        30.08F
DRYDEN           N/A     69  59  70 N6        30.06R
FORT STOCKTON  CLOUDY    59  55  87 SE8       30.09R
GUAD PASS      CLOUDY    50  50 100 NE25      30.14F FOG
HOBBS          PTCLDY    54  54 100 S9        30.11F
MARFA          CLOUDY    55  54  94 NE8       30.16S
MIDLAND AIRPK  CLOUDY    62  58  87 SE9       30.10R
MIDLAND INTL   CLOUDY    61  58  90 SE13      30.10R
ODESSA         CLOUDY    61  57  87 SE13      30.08S
PECOS          CLOUDY    59  57  94 W3        30.11R
PRESIDIO       FAIR      66  53  62 N8        30.05F
SEMINOLE       MOCLDY    55  53  91 W6        30.10R
SNYDER         CLOUDY    62  58  88 CALM      30.08F
WINK           CLOUDY    60  58  92 SW5       30.08F
$$
...OTHER STATIONS IN TEXAS...

CITY           SKY/WX    TMP DP  RH WIND       PRES   REMARKS
ABILENE        CLOUDY    64  52  64 SE13      30.07F
AMARILLO       CLOUDY    52  46  80 SW7       30.08R
AUSTIN         PTCLDY    59  56  89 CALM      30.12S
BROWNSVILLE    CLOUDY    70  66  87 SE12      30.05F
CORPUS CHRISTI CLOUDY    69  64  84 SE9       30.09F
DALLAS FTW     CLOUDY    63  53  70 S6        30.12S
DEL RIO        LGT RAIN  71  62  73 SE16G24   30.03R
EL PASO        MOCLDY    55  50  83 CALM      30.10S
HOUSTON INT    MOCLDY    62  60  93 S3        30.15S
LUBBOCK        CLOUDY    57  55  93 SW10      30.05R
SAN ANGELO     MOCLDY    62  59  90 CALM      30.06F
SAN ANTONIO    CLOUDY    67  59  75 SE8       30.12S
WACO           CLOUDY    64  56  75 SE5       30.12S
WICHITA FALLS  NOT AVBL
$$
...OTHER LOCATIONS IN NEW MEXICO...

CITY           SKY/WX    TMP DP  RH WIND       PRES   REMARKS
ALAMAGORDO     PTCLDY    48  48 100 SW5       30.14R
ALBUQUERQUE    CLOUDY    52  45  77 SE3       30.14S
CANNON AFB     CLEAR     52  48  87 S10       30.09R
CLOVIS         CLEAR     48  45  87 SW7       30.12R
HOLLOMAN AFB   PTCLDY    50  50 100 CALM      30.12S
ROSWELL        CLEAR     50  47  89 S9        30.07R
RUIDOSO        PTCLDY    41  37  87 W9        30.18F WCI  35
SANTA FE       LGT RAIN  47  44  90 SW6       30.15R
TRUTH OR CONSE CLOUDY    52  48  86 SE5       30.12S
TUCUMCARI      MOCLDY    55  50  83 SW7       30.04S
$$

USA.gov is the U.S. government's official web portal to all federal, state and local government web resources and services.